sat.trackr.live / text

‹ back to catalog

STARLINK-34220

NORAD 64930 · 2025-157AC

PAYLOAD ACTIVE UNKNOWN

§ Identity

Operator
Country
US
Launch date
2025-07-26
Launch site
AFETR
Launch vehicle
Mass (kg)
RCS (m²)

Purposes: comms

External: N2YO · Heavens-Above · Gunter

§ Orbital elements

Epoch: 2026-09-20T10:25:18.155424Z

Period
94.01 min
Inclination
53.1585°
Eccentricity
0.0001086
Mean motion
15.31706810 rev/d
Perigee alt
470.0 km
Apogee alt
471.5 km
Semi-major
6,848.9 km
B*
2.4503e-4
RAAN
159.4124°
Arg perigee
102.6464°
Mean anomaly
257.4659°
Rev number
6,585

§ Raw data

STARLINK-342201 64930U 25157AC  26263.43423791  .00007248  00000+0  24503-3 0  99912 64930  53.1585 159.4124 0001086 102.6464 257.4659 15.31706810 65859

JSON: /api/v1/satellites/64930 · /tle

For live sub-satellite position, see the globe view (requires WebGL).

§ Visibility from observer

Set your observer location to see the next 7 days of passes ≥ 10°. The values pass through the URL so the page stays shareable.

No JS? Fill the form by hand. The geolocation button needs JavaScript.